#timestamp,LO_Frequency,Hit,StdDev 
1596936795.2,286047026.2,P
1596936815.0,286047028.4,P
1596936815.9,286047028.4,P
1596936835.8,286047026.2,Y
1596936855.6,286047001.1,P
1596936875.4,286047001.1,N
1596936895.3,286047000.8,N
1596936915.1,286047000.4,N
1596936935.9,286047000.4,N
1596936955.7,286047000.4,N
1596936975.5,286047000.3,N
1596936995.4,286046999.8,N
1596937015.2,286046999.7,N
1596937035.0,286047002.7,N
1596937035.9,286047002.7,N
1596937055.8,286047002.1,N
1596937075.6,286046999.8,N
1596937095.5,286047002.4,N
1596937115.3,286047002.5,N
1596937135.1,286046999.9,N
1596937155.9,286047002.3,N
1596937175.7,286047002.0,N
1596937195.5,286047001.4,N
1596937215.4,286047003.9,N
1596937235.2,286047004.1,N
1596937255.1,286047001.4,N
1596937256.0,286047001.4,N
1596937275.8,286047001.3,N
1596937295.6,286047004.4,N
1596937315.5,286047004.2,N
1596937335.3,286047004.0,N
1596937355.2,286047004.4,N
1596937375.9,286047001.5,N
1596937395.7,286047003.8,N
1596937415.6,286047002.2,N
1596937435.4,286047004.1,N
1596937455.2,286047001.5,N
1596937475.1,286047001.8,N
1596937476.0,286047001.8,N
1596937495.8,286047001.3,N
1596937515.7,286047003.6,N
1596937535.5,286047003.7,N
1596937555.3,286047005.9,Y
1596937575.2,286047002.7,P
1596937595.0,286047002.6,P
1596937595.9,286047002.6,P
1596937615.8,286047002.2,Y
1596937635.6,286046998.2,P
1596937655.4,286047001.2,N
1596937675.3,286047000.6,N
1596937695.1,286047000.9,N
1596937715.9,286047000.8,N
1596937735.7,286047000.8,N
1596937755.5,286047001.0,N
1596937775.4,286047000.6,N
1596937795.2,286047002.7,N
1596937815.1,286046999.7,N
1596937816.0,286046999.7,N
1596937835.8,286046999.9,N
1596937855.6,286047000.2,N
1596937875.5,286047002.2,N
1596937895.3,286047002.8,N
1596937915.1,286047001.9,N
1596937935.9,286047002.2,N
1596937955.7,286047001.6,N
1596937975.6,286047004.0,Y
1596937995.4,286047002.6,P
1596938015.2,286047001.7,N
1596938035.1,286047001.7,N
1596938036.0,286047001.7,N
1596938055.8,286047002.5,Y
1596938075.7,286047000.7,P
1596938095.5,286046999.7,N
1596938115.3,286047002.4,N
1596938135.2,286047002.8,N
1596938155.0,286047002.5,N
1596938155.9,286047002.5,N
1596938175.7,286047002.3,N
1596938195.6,286047002.2,N
1596938215.4,286047002.5,N
1596938235.3,286047002.0,N
1596938255.1,286047001.4,N
1596938275.8,286047003.9,Y
1596938295.7,286047000.2,P
1596938315.5,286047000.2,N
1596938335.4,286047000.2,N
1596938355.2,286047002.6,Y
1596938375.0,286047002.3,P
1596938375.9,286047002.3,N
1596938395.8,286046999.8,N
